Location: Unspecified
(41.5000°N, 0.0000°E)
Time: 04:00:45
(UTC+00:00)

deb Explorer IX - Pass Details

Date: 16 June 2019
Orbit: 544 x 1107 km, 38.8° (Epoch: 12 October)

Event Time Altitude Azimuth Distance (km) Brightness Sun altitude
Rises 20:48:06 0° 278° (W) 3,711 ? -11.3°
Reaches altitude 10° 20:51:08 10° 271° (W) 2,676 ? -11.7°
Maximum altitude 20:56:51 35° 208° (SSW) 1,351 ? -12.4°
Enters shadow 21:00:27 17° 152° (SSE) 1,899 ? -12.9°
